Time,TemperatureF,DewpointF,PressureIn,WindDirection,WindDirectionDegrees,WindSpeedMPH,WindSpeedGustMPH,Humidity,HourlyPrecipIn,Conditions,Clouds,dailyrainin,SoftwareType,DateUTC
2013-03-09 00:00:00,40.0,31.0,29.70,SSW,209,22.0,22.0,70,0.00,,,0.00,Wunderground v.1.15,2013-03-09 07:00:00,
2013-03-09 00:10:00,40.6,30.1,29.70,SSW,203,21.0,23.0,66,0.00,,,0.01,Wunderground v.1.15,2013-03-09 07:10:00,
2013-03-09 00:15:00,40.7,29.8,29.70,SSW,202,23.0,23.0,65,0.00,,,0.01,Wunderground v.1.15,2013-03-09 07:15:00,
2013-03-09 00:25:00,40.5,30.4,29.70,SSW,196,19.0,22.0,67,0.00,,,0.01,Wunderground v.1.15,2013-03-09 07:25:00,
2013-03-09 00:30:00,40.4,30.7,29.70,SSW,201,18.0,20.0,68,0.00,,,0.01,Wunderground v.1.15,2013-03-09 07:30:00,
2013-03-09 00:35:00,40.4,30.7,29.70,South,169,17.0,20.0,68,0.00,,,0.01,Wunderground v.1.15,2013-03-09 07:35:00,
2013-03-09 00:40:00,40.4,30.7,29.70,SSW,196,17.0,18.0,68,0.00,,,0.01,Wunderground v.1.15,2013-03-09 07:40:00,
2013-03-09 00:45:00,40.1,30.7,29.70,SSW,195,14.0,18.0,69,0.00,,,0.01,Wunderground v.1.15,2013-03-09 07:45:00,
2013-03-09 00:50:00,39.8,30.8,29.70,SSW,195,10.0,10.0,70,0.00,,,0.01,Wunderground v.1.15,2013-03-09 07:50:00,
2013-03-09 00:55:00,40.3,30.2,29.70,SSW,206,12.0,15.0,67,0.00,,,0.01,Wunderground v.1.15,2013-03-09 07:55:00,
2013-03-09 01:00:00,40.1,30.4,29.70,SSW,209,13.0,14.0,68,0.00,,,0.01,Wunderground v.1.15,2013-03-09 08:00:00,
2013-03-09 01:10:00,40.2,30.5,29.70,SSW,200,12.0,12.0,68,0.00,,,0.01,Wunderground v.1.15,2013-03-09 08:10:00,
2013-03-09 01:15:00,40.2,30.1,29.70,SSW,202,10.0,12.0,67,0.00,,,0.01,Wunderground v.1.15,2013-03-09 08:15:00,
2013-03-09 01:20:00,40.4,29.9,29.70,SSW,210,12.0,12.0,66,0.00,,,0.01,Wunderground v.1.15,2013-03-09 08:20:00,
2013-03-09 01:30:00,40.2,30.1,29.70,SW,225,12.0,15.0,67,0.00,,,0.01,Wunderground v.1.15,2013-03-09 08:30:00,
2013-03-09 01:35:00,40.3,30.6,29.70,SW,223,13.0,18.0,68,0.00,,,0.01,Wunderground v.1.15,2013-03-09 08:35:00,
2013-03-09 01:40:00,40.1,30.4,29.70,SW,215,11.0,15.0,68,0.00,,,0.01,Wunderground v.1.15,2013-03-09 08:40:00,
2013-03-09 01:45:00,40.2,30.5,29.70,South,186,10.0,15.0,68,0.00,,,0.01,Wunderground v.1.15,2013-03-09 08:45:00,
2013-03-09 01:50:00,40.1,30.4,29.70,SW,229,8.0,8.0,68,0.00,,,0.01,Wunderground v.1.15,2013-03-09 08:50:00,
2013-03-09 02:00:00,40.0,30.3,29.70,SW,218,9.0,9.0,68,0.00,,,0.01,Wunderground v.1.15,2013-03-09 09:00:00,
2013-03-09 02:10:00,40.1,30.0,29.70,SW,231,4.0,7.0,67,0.00,,,0.01,Wunderground v.1.15,2013-03-09 09:10:00,
2013-03-09 02:15:00,39.9,30.2,29.70,SSW,197,4.0,7.0,68,0.00,,,0.01,Wunderground v.1.15,2013-03-09 09:15:00,
2013-03-09 02:25:00,39.8,30.1,29.70,SSW,194,2.0,6.0,68,0.00,,,0.01,Wunderground v.1.15,2013-03-09 09:25:00,
2013-03-09 02:30:00,39.8,30.1,29.70,WSW,250,1.0,1.0,68,0.00,,,0.01,Wunderground v.1.15,2013-03-09 09:30:00,
2013-03-09 02:35:00,39.7,30.0,29.70,South,178,1.0,1.0,68,0.00,,,0.01,Wunderground v.1.15,2013-03-09 09:35:00,
2013-03-09 02:40:00,39.7,30.4,29.70,SSW,199,1.0,1.0,69,0.00,,,0.01,Wunderground v.1.15,2013-03-09 09:40:00,
2013-03-09 02:45:00,39.5,29.8,29.70,SSW,207,3.0,9.0,68,0.00,,,0.01,Wunderground v.1.15,2013-03-09 09:45:00,
2013-03-09 02:50:00,39.2,29.5,29.70,SSW,199,5.0,7.0,68,0.00,,,0.01,Wunderground v.1.15,2013-03-09 09:50:00,
2013-03-09 02:55:00,38.9,29.6,29.70,SW,221,5.0,7.0,69,0.00,,,0.01,Wunderground v.1.15,2013-03-09 09:55:00,
2013-03-09 03:00:00,38.4,29.8,29.70,SSW,211,6.0,6.0,71,0.00,,,0.01,Wunderground v.1.15,2013-03-09 10:00:00,
2013-03-09 03:10:00,38.2,29.6,29.70,WSW,242,8.0,10.0,71,0.00,,,0.01,Wunderground v.1.15,2013-03-09 10:10:00,
2013-03-09 03:15:00,38.2,29.6,29.70,WSW,248,7.0,10.0,71,0.00,,,0.01,Wunderground v.1.15,2013-03-09 10:15:00,
2013-03-09 03:20:00,38.3,29.0,29.70,SW,217,6.0,6.0,69,0.00,,,0.01,Wunderground v.1.15,2013-03-09 10:20:00,
2013-03-09 03:25:00,38.4,29.1,29.70,SW,221,5.0,6.0,69,0.00,,,0.01,Wunderground v.1.15,2013-03-09 10:25:00,
2013-03-09 03:30:00,38.2,28.9,29.70,SW,220,4.0,4.0,69,0.00,,,0.01,Wunderground v.1.15,2013-03-09 10:30:00,
2013-03-09 03:40:00,38.2,28.9,29.70,WSW,243,2.0,2.0,69,0.00,,,0.01,Wunderground v.1.15,2013-03-09 10:40:00,
2013-03-09 03:45:00,38.0,28.4,29.70,NW,313,1.0,2.0,68,0.00,,,0.01,Wunderground v.1.15,2013-03-09 10:45:00,
2013-03-09 03:50:00,38.1,28.8,29.70,West,264,1.0,1.0,69,0.00,,,0.01,Wunderground v.1.15,2013-03-09 10:50:00,
2013-03-09 03:55:00,37.9,28.6,29.70,West,270,1.0,1.0,69,0.00,,,0.01,Wunderground v.1.15,2013-03-09 10:55:00,
2013-03-09 04:00:00,37.8,28.2,29.70,WSW,238,1.0,1.0,68,0.00,,,0.01,Wunderground v.1.15,2013-03-09 11:00:00,
2013-03-09 04:10:00,37.8,27.8,29.70,SW,220,0.0,0.0,67,0.00,,,0.01,Wunderground v.1.15,2013-03-09 11:10:00,
2013-03-09 04:15:00,37.7,27.4,29.70,SW,221,0.0,0.0,66,0.00,,,0.01,Wunderground v.1.15,2013-03-09 11:15:00,
2013-03-09 04:20:00,37.6,27.6,29.70,SW,221,0.0,0.0,67,0.00,,,0.01,Wunderground v.1.15,2013-03-09 11:20:00,
2013-03-09 04:25:00,37.5,27.2,29.70,SSW,200,0.0,0.0,66,0.00,,,0.01,Wunderground v.1.15,2013-03-09 11:25:00,
2013-03-09 04:30:00,37.5,27.2,29.70,ESE,123,0.0,0.0,66,0.00,,,0.01,Wunderground v.1.15,2013-03-09 11:30:00,
2013-03-09 04:35:00,37.3,27.3,29.70,East,83,0.0,0.0,67,0.00,,,0.01,Wunderground v.1.15,2013-03-09 11:35:00,
2013-03-09 04:40:00,36.6,26.7,29.70,East,88,1.0,3.0,67,0.00,,,0.01,Wunderground v.1.15,2013-03-09 11:40:00,
2013-03-09 04:50:00,35.9,27.4,29.70,ENE,69,3.0,4.0,71,0.00,,,0.01,Wunderground v.1.15,2013-03-09 11:50:00,
2013-03-09 04:55:00,36.2,27.4,29.70,NNE,28,4.0,4.0,70,0.00,,,0.01,Wunderground v.1.15,2013-03-09 11:55:00,
2013-03-09 05:00:00,36.6,27.0,29.70,NE,42,3.0,3.0,68,0.00,,,0.01,Wunderground v.1.15,2013-03-09 12:00:00,
2013-03-09 05:10:00,36.5,27.3,29.70,NE,49,3.0,5.0,69,0.00,,,0.02,Wunderground v.1.15,2013-03-09 12:10:00,
2013-03-09 05:15:00,36.5,27.3,29.70,NE,56,3.0,5.0,69,0.00,,,0.02,Wunderground v.1.15,2013-03-09 12:15:00,
2013-03-09 05:20:00,36.5,27.3,29.70,NE,49,2.0,3.0,69,0.00,,,0.02,Wunderground v.1.15,2013-03-09 12:20:00,
2013-03-09 05:25:00,36.6,27.0,29.70,NNE,25,1.0,3.0,68,0.00,,,0.02,Wunderground v.1.15,2013-03-09 12:25:00,
2013-03-09 05:30:00,36.8,27.2,29.70,NE,52,1.0,1.0,68,0.00,,,0.02,Wunderground v.1.15,2013-03-09 12:30:00,
2013-03-09 05:35:00,37.0,27.1,29.70,NE,52,0.0,1.0,67,0.00,,,0.02,Wunderground v.1.15,2013-03-09 12:35:00,
2013-03-09 05:40:00,37.1,26.4,29.70,NE,52,0.0,0.0,65,0.00,,,0.02,Wunderground v.1.15,2013-03-09 12:40:00,
2013-03-09 05:45:00,37.5,26.0,29.70,ENE,57,1.0,1.0,63,0.00,,,0.02,Wunderground v.1.15,2013-03-09 12:45:00,
2013-03-09 05:50:00,38.0,25.7,29.70,WSW,254,2.0,2.0,61,0.00,,,0.02,Wunderground v.1.15,2013-03-09 12:50:00,
2013-03-09 06:00:00,38.3,26.4,29.70,WSW,248,2.0,6.0,62,0.00,,,0.02,Wunderground v.1.15,2013-03-09 13:00:00,
2013-03-09 06:10:00,38.4,25.7,29.70,West,263,5.0,5.0,60,0.00,,,0.02,Wunderground v.1.15,2013-03-09 13:10:00,
2013-03-09 06:15:00,38.4,26.1,29.70,West,261,4.0,5.0,61,0.00,,,0.02,Wunderground v.1.15,2013-03-09 13:15:00,
2013-03-09 06:25:00,38.0,26.1,29.70,SW,216,3.0,4.0,62,0.00,,,0.02,Wunderground v.1.15,2013-03-09 13:25:00,
2013-03-09 06:30:00,37.8,25.9,29.70,South,169,1.0,1.0,62,0.00,,,0.02,Wunderground v.1.15,2013-03-09 13:30:00,
2013-03-09 06:35:00,37.6,26.9,29.70,East,98,1.0,3.0,65,0.00,,,0.02,Wunderground v.1.15,2013-03-09 13:35:00,
2013-03-09 06:40:00,37.0,27.1,29.70,East,98,1.0,1.0,67,0.00,,,0.02,Wunderground v.1.15,2013-03-09 13:40:00,
2013-03-09 06:45:00,36.7,26.8,29.70,East,98,1.0,1.0,67,0.00,,,0.02,Wunderground v.1.15,2013-03-09 13:45:00,
2013-03-09 06:50:00,36.8,27.2,29.70,East,98,0.0,0.0,68,0.00,,,0.02,Wunderground v.1.15,2013-03-09 13:50:00,
2013-03-09 06:55:00,37.2,28.0,29.70,East,98,0.0,0.0,69,0.00,,,0.02,Wunderground v.1.15,2013-03-09 13:55:00,
2013-03-09 07:01:00,37.5,28.2,29.70,East,98,0.0,0.0,69,0.00,,,0.02,Wunderground v.1.15,2013-03-09 14:01:00,
2013-03-09 07:10:00,37.5,28.2,29.70,NE,44,0.0,2.0,69,0.00,,,0.02,Wunderground v.1.15,2013-03-09 14:10:00,
2013-03-09 07:15:00,37.5,27.9,29.70,NE,45,1.0,2.0,68,0.00,,,0.02,Wunderground v.1.15,2013-03-09 14:15:00,
2013-03-09 07:20:00,37.6,28.0,29.70,NE,55,2.0,3.0,68,0.00,,,0.02,Wunderground v.1.15,2013-03-09 14:20:00,
2013-03-09 07:25:00,37.7,28.4,29.70,ENE,71,3.0,3.0,69,0.00,,,0.02,Wunderground v.1.15,2013-03-09 14:25:00,
2013-03-09 07:35:00,38.2,27.5,29.70,ESE,123,0.0,2.0,65,0.00,,,0.02,Wunderground v.1.15,2013-03-09 14:35:00,
2013-03-09 07:40:00,38.4,28.4,29.70,ESE,123,0.0,1.0,67,0.00,,,0.02,Wunderground v.1.15,2013-03-09 14:40:00,
2013-03-09 07:45:00,38.7,28.3,29.70,SSE,156,0.0,1.0,66,0.00,,,0.02,Wunderground v.1.15,2013-03-09 14:45:00,
2013-03-09 07:50:00,38.9,27.8,29.70,South,189,1.0,2.0,64,0.00,,,0.02,Wunderground v.1.15,2013-03-09 14:50:00,
2013-03-09 07:55:00,39.2,27.3,29.70,South,180,1.0,2.0,62,0.00,,,0.02,Wunderground v.1.15,2013-03-09 14:55:00,
2013-03-09 08:01:00,39.5,27.2,29.70,South,180,1.0,1.0,61,0.00,,,0.02,Wunderground v.1.15,2013-03-09 15:01:00,
2013-03-09 08:10:00,40.1,28.1,29.70,South,172,0.0,1.0,62,0.00,,,0.02,Wunderground v.1.15,2013-03-09 15:10:00,
2013-03-09 08:15:00,40.8,28.0,29.70,SSE,148,2.0,2.0,60,0.00,,,0.02,Wunderground v.1.15,2013-03-09 15:15:00,
2013-03-09 08:25:00,41.4,28.1,29.70,SE,126,3.0,4.0,59,0.00,,,0.02,Wunderground v.1.15,2013-03-09 15:25:00,
2013-03-09 08:30:00,41.6,27.9,29.70,SSW,198,5.0,8.0,58,0.00,,,0.03,Wunderground v.1.15,2013-03-09 15:30:00,
2013-03-09 08:35:00,41.6,27.5,29.70,SSW,198,8.0,8.0,57,0.00,,,0.03,Wunderground v.1.15,2013-03-09 15:35:00,
2013-03-09 08:45:00,41.6,26.6,29.70,SE,130,5.0,7.0,55,0.00,,,0.03,Wunderground v.1.15,2013-03-09 15:45:00,
2013-03-09 08:50:00,41.0,26.1,29.70,South,182,3.0,3.0,55,0.00,,,0.03,Wunderground v.1.15,2013-03-09 15:50:00,
2013-03-09 08:55:00,41.0,27.8,29.70,SSE,159,3.0,4.0,59,0.00,,,0.03,Wunderground v.1.15,2013-03-09 15:55:00,
2013-03-09 09:00:00,41.2,27.1,29.70,South,190,2.0,2.0,57,0.00,,,0.03,Wunderground v.1.15,2013-03-09 16:00:00,
2013-03-09 09:10:00,41.2,26.2,29.70,West,263,3.0,4.0,55,0.00,,,0.03,Wunderground v.1.15,2013-03-09 16:10:00,
2013-03-09 09:15:00,41.2,26.7,29.70,SW,229,5.0,6.0,56,0.00,,,0.03,Wunderground v.1.15,2013-03-09 16:15:00,
2013-03-09 09:20:00,41.2,26.7,29.70,NNW,331,5.0,5.0,56,0.00,,,0.03,Wunderground v.1.15,2013-03-09 16:20:00,
2013-03-09 09:25:00,41.8,27.2,29.70,South,179,4.0,5.0,56,0.00,,,0.03,Wunderground v.1.15,2013-03-09 16:25:00,
2013-03-09 09:30:00,42.8,27.7,29.70,SSW,210,5.0,5.0,55,0.00,,,0.03,Wunderground v.1.15,2013-03-09 16:30:00,
2013-03-09 09:40:00,42.5,27.5,29.70,SSW,204,4.0,7.0,55,0.00,,,0.03,Wunderground v.1.15,2013-03-09 16:40:00,
2013-03-09 09:45:00,42.3,27.3,29.70,South,186,4.0,9.0,55,0.00,,,0.03,Wunderground v.1.15,2013-03-09 16:45:00,
2013-03-09 09:50:00,42.4,27.8,29.70,SSW,198,5.0,12.0,56,0.00,,,0.03,Wunderground v.1.15,2013-03-09 16:50:00,
2013-03-09 09:55:00,42.6,27.5,29.70,WSW,254,8.0,12.0,55,0.00,,,0.03,Wunderground v.1.15,2013-03-09 16:55:00,
2013-03-09 10:00:00,42.7,26.7,29.70,South,169,7.0,7.0,53,0.00,,,0.03,Wunderground v.1.15,2013-03-09 17:00:00,
2013-03-09 10:10:00,43.3,27.8,29.70,South,188,6.0,10.0,54,0.00,,,0.03,Wunderground v.1.15,2013-03-09 17:10:00,
2013-03-09 10:15:00,43.5,27.9,29.70,SSW,194,6.0,10.0,54,0.00,,,0.03,Wunderground v.1.15,2013-03-09 17:15:00,
2013-03-09 10:25:00,43.1,26.7,29.70,SW,228,5.0,5.0,52,0.00,,,0.03,Wunderground v.1.15,2013-03-09 17:25:00,
2013-03-09 10:30:00,43.1,27.1,29.70,South,181,3.0,3.0,53,0.00,,,0.03,Wunderground v.1.15,2013-03-09 17:30:00,
2013-03-09 10:35:00,43.3,27.8,29.70,SSW,199,4.0,7.0,54,0.00,,,0.03,Wunderground v.1.15,2013-03-09 17:35:00,
2013-03-09 10:40:00,43.5,28.8,29.70,SSW,209,6.0,7.0,56,0.00,,,0.03,Wunderground v.1.15,2013-03-09 17:40:00,
2013-03-09 10:45:00,43.5,25.6,29.70,West,265,7.0,7.0,49,0.00,,,0.03,Wunderground v.1.15,2013-03-09 17:45:00,
2013-03-09 10:55:00,44.9,26.4,29.70,SSW,209,7.0,9.0,48,0.00,,,0.03,Wunderground v.1.15,2013-03-09 17:55:00,
2013-03-09 11:00:00,45.3,27.2,29.70,South,178,6.0,6.0,49,0.00,,,0.03,Wunderground v.1.15,2013-03-09 18:00:00,
2013-03-09 11:10:00,46.0,28.4,29.70,South,184,6.0,13.0,50,0.00,,,0.03,Wunderground v.1.15,2013-03-09 18:10:00,
2013-03-09 11:15:00,45.8,27.2,29.70,WSW,237,8.0,13.0,48,0.00,,,0.03,Wunderground v.1.15,2013-03-09 18:15:00,
2013-03-09 11:25:00,46.8,28.6,29.70,WSW,237,10.0,15.0,49,0.00,,,0.03,Wunderground v.1.15,2013-03-09 18:25:00,
2013-03-09 11:30:00,47.0,28.8,29.70,SSW,202,12.0,12.0,49,0.00,,,0.03,Wunderground v.1.15,2013-03-09 18:30:00,
2013-03-09 11:35:00,47.0,29.3,29.70,SW,225,12.0,15.0,50,0.00,,,0.03,Wunderground v.1.15,2013-03-09 18:35:00,
2013-03-09 11:40:00,47.3,28.6,29.70,SW,228,11.0,13.0,48,0.00,,,0.03,Wunderground v.1.15,2013-03-09 18:40:00,
2013-03-09 11:50:00,47.5,28.3,29.70,WSW,243,14.0,19.0,47,0.00,,,0.03,Wunderground v.1.15,2013-03-09 18:50:00,
2013-03-09 11:55:00,47.8,28.0,29.70,WSW,248,15.0,19.0,46,0.00,,,0.03,Wunderground v.1.15,2013-03-09 18:55:00,
2013-03-09 12:00:00,47.5,28.8,29.70,SW,229,14.0,14.0,48,0.00,,,0.03,Wunderground v.1.15,2013-03-09 19:00:00,
2013-03-09 12:10:00,47.6,29.9,29.70,SW,230,11.0,11.0,50,0.00,,,0.03,Wunderground v.1.15,2013-03-09 19:10:00,
2013-03-09 12:15:00,47.5,28.8,29.70,WSW,238,12.0,16.0,48,0.00,,,0.03,Wunderground v.1.15,2013-03-09 19:15:00,
2013-03-09 12:20:00,47.3,28.6,29.70,SW,227,13.0,13.0,48,0.00,,,0.03,Wunderground v.1.15,2013-03-09 19:20:00,
2013-03-09 12:25:00,46.6,28.9,29.70,SW,223,14.0,14.0,50,0.00,,,0.03,Wunderground v.1.15,2013-03-09 19:25:00,
2013-03-09 12:30:00,47.5,29.3,29.70,WSW,241,15.0,15.0,49,0.00,,,0.03,Wunderground v.1.15,2013-03-09 19:30:00,
2013-03-09 12:35:00,48.5,30.7,29.70,WSW,242,15.0,15.0,50,0.00,,,0.03,Wunderground v.1.15,2013-03-09 19:35:00,
2013-03-09 12:40:00,48.1,29.8,29.70,SW,229,15.0,21.0,49,0.00,,,0.03,Wunderground v.1.15,2013-03-09 19:40:00,
2013-03-09 12:45:00,47.5,29.8,29.70,SW,230,16.0,21.0,50,0.00,,,0.03,Wunderground v.1.15,2013-03-09 19:45:00,
2013-03-09 12:55:00,47.9,29.1,29.70,SW,232,15.0,16.0,48,0.00,,,0.03,Wunderground v.1.15,2013-03-09 19:55:00,
2013-03-09 13:00:00,48.4,30.1,29.70,SW,227,13.0,17.0,49,0.00,,,0.03,Wunderground v.1.15,2013-03-09 20:00:00,
2013-03-09 13:10:00,49.1,29.7,29.70,SW,236,14.0,19.0,47,0.00,,,0.03,Wunderground v.1.15,2013-03-09 20:10:00,
2013-03-09 13:15:00,47.6,29.4,29.70,WSW,248,13.0,19.0,49,0.00,,,0.03,Wunderground v.1.15,2013-03-09 20:15:00,
2013-03-09 13:20:00,46.9,28.7,29.70,SW,225,12.0,12.0,49,0.00,,,0.03,Wunderground v.1.15,2013-03-09 20:20:00,
2013-03-09 13:25:00,47.3,30.5,29.70,SW,227,11.0,16.0,52,0.00,,,0.03,Wunderground v.1.15,2013-03-09 20:25:00,
2013-03-09 13:30:00,46.9,29.7,29.70,SW,229,13.0,15.0,51,0.00,,,0.03,Wunderground v.1.15,2013-03-09 20:30:00,
2013-03-09 13:40:00,46.8,30.1,29.70,SW,223,12.0,12.0,52,0.00,,,0.03,Wunderground v.1.15,2013-03-09 20:40:00,
2013-03-09 13:45:00,46.8,29.1,29.70,SW,215,11.0,12.0,50,0.00,,,0.03,Wunderground v.1.15,2013-03-09 20:45:00,
2013-03-09 13:50:00,47.8,29.5,29.70,SSW,210,13.0,13.0,49,0.00,,,0.03,Wunderground v.1.15,2013-03-09 20:50:00,
2013-03-09 13:55:00,48.6,30.3,29.70,SW,222,13.0,13.0,49,0.00,,,0.03,Wunderground v.1.15,2013-03-09 20:55:00,
2013-03-09 14:00:00,47.9,29.1,29.70,SW,232,14.0,16.0,48,0.00,,,0.03,Wunderground v.1.15,2013-03-09 21:00:00,
2013-03-09 14:10:00,47.4,29.2,29.70,SW,217,18.0,18.0,49,0.00,,,0.03,Wunderground v.1.15,2013-03-09 21:10:00,
2013-03-09 14:15:00,47.4,28.7,29.70,SW,230,17.0,19.0,48,0.00,,,0.03,Wunderground v.1.15,2013-03-09 21:15:00,
2013-03-09 14:20:00,47.6,28.3,29.70,SW,218,17.0,17.0,47,0.00,,,0.03,Wunderground v.1.15,2013-03-09 21:20:00,
2013-03-09 14:30:00,48.5,29.7,29.70,SW,227,18.0,18.0,48,0.00,,,0.03,Wunderground v.1.15,2013-03-09 21:30:00,
2013-03-09 14:35:00,48.6,30.3,29.70,SW,235,17.0,18.0,49,0.00,,,0.03,Wunderground v.1.15,2013-03-09 21:35:00,
2013-03-09 14:40:00,49.0,30.1,29.70,SW,230,14.0,14.0,48,0.00,,,0.03,Wunderground v.1.15,2013-03-09 21:40:00,
2013-03-09 14:45:00,48.5,31.7,29.70,WSW,246,14.0,15.0,52,0.00,,,0.03,Wunderground v.1.15,2013-03-09 21:45:00,
2013-03-09 14:50:00,46.7,31.8,29.70,WSW,244,15.0,15.0,56,0.00,,,0.03,Wunderground v.1.15,2013-03-09 21:50:00,
2013-03-09 14:55:00,46.3,33.6,29.95,SW,231,13.0,15.0,61,0.00,,,0.03,Wunderground v.1.15,2013-03-09 21:55:00,
2013-03-09 15:00:00,46.8,32.4,29.95,SW,221,9.0,9.0,57,0.00,,,0.03,Wunderground v.1.15,2013-03-09 22:00:00,
2013-03-09 15:10:00,48.7,32.3,29.95,SW,234,12.0,13.0,53,0.00,,,0.03,Wunderground v.1.15,2013-03-09 22:10:00,
2013-03-09 15:15:00,48.9,31.5,29.95,SW,224,14.0,18.0,51,0.00,,,0.03,Wunderground v.1.15,2013-03-09 22:15:00,
2013-03-09 15:20:00,47.7,31.4,29.95,WSW,243,16.0,16.0,53,0.00,,,0.03,Wunderground v.1.15,2013-03-09 22:20:00,
2013-03-09 15:25:00,47.3,30.5,29.95,SW,232,16.0,16.0,52,0.00,,,0.03,Wunderground v.1.15,2013-03-09 22:25:00,
2013-03-09 15:30:00,48.1,31.3,29.95,SW,216,16.0,16.0,52,0.00,,,0.03,Wunderground v.1.15,2013-03-09 22:30:00,
2013-03-09 15:40:00,47.0,30.7,29.95,SW,235,17.0,21.0,53,0.00,,,0.03,Wunderground v.1.15,2013-03-09 22:40:00,
2013-03-09 15:45:00,46.8,30.6,29.95,WSW,250,19.0,21.0,53,0.00,,,0.03,Wunderground v.1.15,2013-03-09 22:45:00,
2013-03-09 15:50:00,46.4,31.1,29.95,SW,231,18.0,18.0,55,0.00,,,0.03,Wunderground v.1.15,2013-03-09 22:50:00,
2013-03-09 16:00:00,46.2,31.4,29.95,WSW,243,17.0,17.0,56,0.00,,,0.03,Wunderground v.1.15,2013-03-09 23:00:00,
2013-03-09 16:10:00,47.1,31.3,29.95,SSW,211,18.0,18.0,54,0.00,,,0.03,Wunderground v.1.15,2013-03-09 23:10:00,
2013-03-09 16:15:00,47.1,30.8,29.95,SW,232,16.0,18.0,53,0.00,,,0.03,Wunderground v.1.15,2013-03-09 23:15:00,
2013-03-09 16:20:00,47.2,30.5,29.95,SW,225,14.0,14.0,52,0.00,,,0.03,Wunderground v.1.15,2013-03-09 23:20:00,
2013-03-09 16:30:00,47.1,30.8,29.95,SW,236,15.0,17.0,53,0.00,,,0.03,Wunderground v.1.15,2013-03-09 23:30:00,
2013-03-09 16:35:00,47.2,30.5,29.97,WSW,242,15.0,17.0,52,0.00,,,0.03,Wunderground v.1.15,2013-03-09 23:35:00,
2013-03-09 16:40:00,46.7,30.0,29.97,SW,219,14.0,18.0,52,0.00,,,0.03,Wunderground v.1.15,2013-03-09 23:40:00,
2013-03-09 16:45:00,45.8,30.1,29.97,SW,222,14.0,18.0,54,0.00,,,0.03,Wunderground v.1.15,2013-03-09 23:45:00,
2013-03-09 16:50:00,45.2,29.5,29.97,SW,216,15.0,15.0,54,0.00,,,0.03,Wunderground v.1.15,2013-03-09 23:50:00,
2013-03-09 16:55:00,45.1,29.9,29.97,SW,227,15.0,15.0,55,0.00,,,0.03,Wunderground v.1.15,2013-03-09 23:55:00,
2013-03-09 17:00:00,44.8,29.6,29.98,WSW,240,14.0,14.0,55,0.00,,,0.03,Wunderground v.1.15,2013-03-10 00:00:00,
2013-03-09 17:10:00,44.4,29.2,29.97,SW,229,13.0,15.0,55,0.00,,,0.03,Wunderground v.1.15,2013-03-10 00:10:00,
2013-03-09 17:15:00,44.5,29.8,29.97,SW,235,12.0,15.0,56,0.00,,,0.03,Wunderground v.1.15,2013-03-10 00:15:00,
2013-03-09 17:20:00,44.3,29.6,29.97,WSW,240,11.0,11.0,56,0.00,,,0.03,Wunderground v.1.15,2013-03-10 00:20:00,
2013-03-09 17:30:00,44.2,29.9,29.97,WSW,237,9.0,11.0,57,0.00,,,0.03,Wunderground v.1.15,2013-03-10 00:30:00,
2013-03-09 17:35:00,44.1,29.8,29.97,SW,222,11.0,11.0,57,0.00,,,0.03,Wunderground v.1.15,2013-03-10 00:35:00,
2013-03-09 17:45:00,43.8,30.0,29.97,WSW,250,10.0,11.0,58,0.00,,,0.03,Wunderground v.1.15,2013-03-10 00:45:00,
2013-03-09 17:50:00,43.6,30.6,29.97,SW,232,10.0,14.0,60,0.00,,,0.03,Wunderground v.1.15,2013-03-10 00:50:00,
2013-03-09 17:55:00,43.2,31.1,29.97,WSW,248,11.0,14.0,62,0.00,,,0.03,Wunderground v.1.15,2013-03-10 00:55:00,
2013-03-09 18:00:00,43.1,31.7,29.97,WSW,246,11.0,11.0,64,0.00,,,0.03,Wunderground v.1.15,2013-03-10 01:00:00,
2013-03-09 18:10:00,43.1,31.7,29.97,WSW,240,10.0,10.0,64,0.00,,,0.03,Wunderground v.1.15,2013-03-10 01:10:00,
2013-03-09 18:15:00,43.0,32.0,29.97,WSW,252,8.0,10.0,65,0.00,,,0.03,Wunderground v.1.15,2013-03-10 01:15:00,
2013-03-09 18:20:00,42.8,32.2,29.97,West,260,9.0,12.0,66,0.00,,,0.03,Wunderground v.1.15,2013-03-10 01:20:00,
2013-03-09 18:25:00,42.0,33.3,29.97,West,272,11.0,12.0,71,0.00,,,0.03,Wunderground v.1.15,2013-03-10 01:25:00,
2013-03-09 18:30:00,41.1,33.4,29.97,WSW,254,9.0,9.0,74,0.00,,,0.03,Wunderground v.1.15,2013-03-10 01:30:00,
2013-03-09 18:35:00,41.0,33.3,29.97,WSW,238,7.0,9.0,74,0.00,,,0.03,Wunderground v.1.15,2013-03-10 01:35:00,
2013-03-09 18:40:00,41.0,34.0,29.97,SW,234,6.0,6.0,76,0.00,,,0.03,Wunderground v.1.15,2013-03-10 01:40:00,
2013-03-09 18:50:00,40.7,32.7,29.97,WSW,242,9.0,9.0,73,0.00,,,0.03,Wunderground v.1.15,2013-03-10 01:50:00,
2013-03-09 18:55:00,40.6,32.6,29.97,WSW,254,8.0,9.0,73,0.00,,,0.03,Wunderground v.1.15,2013-03-10 01:55:00,
2013-03-09 19:01:00,40.5,32.9,29.97,West,270,6.0,6.0,74,0.00,,,0.03,Wunderground v.1.15,2013-03-10 02:01:00,
2013-03-09 19:10:00,40.7,34.0,29.97,WNW,289,4.0,4.0,77,0.00,,,0.03,Wunderground v.1.15,2013-03-10 02:10:00,
2013-03-09 19:15:00,40.6,34.9,29.97,WNW,297,5.0,7.0,80,0.00,,,0.03,Wunderground v.1.15,2013-03-10 02:15:00,
2013-03-09 19:20:00,40.6,34.9,29.97,WNW,296,6.0,9.0,80,0.00,,,0.03,Wunderground v.1.15,2013-03-10 02:20:00,
2013-03-09 19:25:00,40.5,34.8,29.97,WNW,288,6.0,9.0,80,0.00,,,0.03,Wunderground v.1.15,2013-03-10 02:25:00,
2013-03-09 19:30:00,40.5,34.8,29.97,WNW,286,6.0,6.0,80,0.00,,,0.03,Wunderground v.1.15,2013-03-10 02:30:00,
2013-03-09 19:40:00,40.3,34.3,29.97,WNW,286,7.0,8.0,79,0.00,,,0.03,Wunderground v.1.15,2013-03-10 02:40:00,
2013-03-09 19:45:00,40.3,34.3,29.97,WNW,287,7.0,8.0,79,0.00,,,0.03,Wunderground v.1.15,2013-03-10 02:45:00,
2013-03-09 19:50:00,40.3,34.0,29.97,West,277,7.0,7.0,78,0.00,,,0.03,Wunderground v.1.15,2013-03-10 02:50:00,
2013-03-09 19:55:00,40.4,33.8,29.97,WNW,288,7.0,9.0,77,0.00,,,0.03,Wunderground v.1.15,2013-03-10 02:55:00,
2013-03-09 20:00:00,40.4,33.8,29.97,West,279,8.0,9.0,77,0.00,,,0.03,Wunderground v.1.15,2013-03-10 03:00:00,
2013-03-09 20:10:00,40.4,33.8,29.97,WNW,288,7.0,8.0,77,0.00,,,0.03,Wunderground v.1.15,2013-03-10 03:10:00,
2013-03-09 20:15:00,40.2,33.9,29.97,WNW,290,7.0,8.0,78,0.00,,,0.03,Wunderground v.1.15,2013-03-10 03:15:00,
2013-03-09 20:25:00,39.9,33.9,29.97,WNW,290,5.0,6.0,79,0.00,,,0.03,Wunderground v.1.15,2013-03-10 03:25:00,
2013-03-09 20:30:00,39.9,34.2,29.97,WNW,288,5.0,5.0,80,0.00,,,0.03,Wunderground v.1.15,2013-03-10 03:30:00,
2013-03-09 20:35:00,40.0,34.3,29.97,WNW,292,5.0,7.0,80,0.00,,,0.03,Wunderground v.1.15,2013-03-10 03:35:00,
2013-03-09 20:45:00,40.0,34.0,29.97,WNW,289,7.0,7.0,79,0.00,,,0.03,Wunderground v.1.15,2013-03-10 03:45:00,
2013-03-09 20:50:00,40.1,34.4,29.97,WNW,286,7.0,7.0,80,0.00,,,0.03,Wunderground v.1.15,2013-03-10 03:50:00,
2013-03-09 20:55:00,40.1,34.1,29.97,WNW,282,6.0,7.0,79,0.00,,,0.03,Wunderground v.1.15,2013-03-10 03:55:00,
2013-03-09 21:00:00,40.1,34.1,29.97,WNW,285,6.0,6.0,79,0.00,,,0.03,Wunderground v.1.15,2013-03-10 04:00:00,
2013-03-09 21:10:00,40.1,34.1,29.97,West,266,7.0,7.0,79,0.00,,,0.03,Wunderground v.1.15,2013-03-10 04:10:00,
2013-03-09 21:15:00,40.1,34.1,29.97,West,273,6.0,7.0,79,0.00,,,0.03,Wunderground v.1.15,2013-03-10 04:15:00,
2013-03-09 21:20:00,40.0,34.0,29.97,West,265,6.0,6.0,79,0.00,,,0.03,Wunderground v.1.15,2013-03-10 04:20:00,
2013-03-09 21:25:00,40.0,34.0,29.97,West,271,7.0,7.0,79,0.00,,,0.03,Wunderground v.1.15,2013-03-10 04:25:00,
2013-03-09 21:35:00,39.5,33.8,29.97,WNW,289,6.0,6.0,80,0.00,,,0.03,Wunderground v.1.15,2013-03-10 04:35:00,
2013-03-09 21:40:00,39.2,33.9,29.97,WNW,287,5.0,5.0,81,0.00,,,0.03,Wunderground v.1.15,2013-03-10 04:40:00,
2013-03-09 21:50:00,39.1,33.8,29.97,West,273,6.0,6.0,81,0.00,,,0.03,Wunderground v.1.15,2013-03-10 04:50:00,
2013-03-09 21:55:00,39.2,33.9,29.97,WNW,285,7.0,7.0,81,0.00,,,0.03,Wunderground v.1.15,2013-03-10 04:55:00,
2013-03-09 22:01:00,39.3,34.3,29.97,WNW,290,6.0,6.0,82,0.00,,,0.03,Wunderground v.1.15,2013-03-10 05:01:00,
2013-03-09 22:05:00,39.3,34.0,29.97,West,271,4.0,6.0,81,0.00,,,0.03,Wunderground v.1.15,2013-03-10 05:05:00,
2013-03-09 22:10:00,39.3,34.0,29.97,West,267,4.0,7.0,81,0.00,,,0.03,Wunderground v.1.15,2013-03-10 05:10:00,
2013-03-09 22:15:00,39.3,34.0,29.97,West,273,5.0,7.0,81,0.00,,,0.03,Wunderground v.1.15,2013-03-10 05:15:00,
2013-03-09 22:20:00,39.4,34.1,29.97,West,275,5.0,5.0,81,0.00,,,0.03,Wunderground v.1.15,2013-03-10 05:20:00,
2013-03-09 22:25:00,39.4,34.1,29.97,West,275,5.0,5.0,81,0.00,,,0.03,Wunderground v.1.15,2013-03-10 05:25:00,
2013-03-09 22:30:00,39.3,34.0,29.97,West,272,5.0,5.0,81,0.00,,,0.03,Wunderground v.1.15,2013-03-10 05:30:00,
2013-03-09 22:35:00,39.2,33.9,29.97,West,281,4.0,5.0,81,0.00,,,0.03,Wunderground v.1.15,2013-03-10 05:35:00,
2013-03-09 22:45:00,38.9,33.6,29.97,West,281,0.0,2.0,81,0.00,,,0.03,Wunderground v.1.15,2013-03-10 05:45:00,
2013-03-09 22:50:00,38.8,33.8,29.97,West,281,1.0,4.0,82,0.00,,,0.03,Wunderground v.1.15,2013-03-10 05:50:00,
2013-03-09 22:55:00,38.8,33.8,29.97,WNW,284,3.0,4.0,82,0.00,,,0.03,Wunderground v.1.15,2013-03-10 05:55:00,
2013-03-09 23:00:00,38.9,33.9,29.97,WNW,284,3.0,3.0,82,0.00,,,0.03,Wunderground v.1.15,2013-03-10 06:00:00,
2013-03-09 23:10:00,38.9,33.9,29.97,WNW,286,1.0,2.0,82,0.00,,,0.03,Wunderground v.1.15,2013-03-10 06:10:00,
2013-03-09 23:15:00,38.9,33.9,29.97,WNW,286,1.0,2.0,82,0.00,,,0.03,Wunderground v.1.15,2013-03-10 06:15:00,
2013-03-09 23:20:00,38.9,33.6,29.97,WNW,286,0.0,0.0,81,0.00,,,0.03,Wunderground v.1.15,2013-03-10 06:20:00,
2013-03-09 23:25:00,38.9,33.6,30.05,WNW,286,0.0,0.0,81,0.00,,,0.03,Wunderground v.1.15,2013-03-10 06:25:00,
2013-03-09 23:30:00,38.8,33.8,30.05,WNW,286,0.0,0.0,82,0.00,,,0.03,Wunderground v.1.15,2013-03-10 06:30:00,
2013-03-09 23:40:00,38.6,33.9,30.05,WNW,286,0.0,0.0,83,0.00,,,0.03,Wunderground v.1.15,2013-03-10 06:40:00,
2013-03-09 23:45:00,38.5,34.1,30.05,NW,313,0.0,0.0,84,0.00,,,0.03,Wunderground v.1.15,2013-03-10 06:45:00,
2013-03-09 23:50:00,38.4,34.0,30.05,NW,313,0.0,0.0,84,0.00,,,0.03,Wunderground v.1.15,2013-03-10 06:50:00,
2013-03-09 23:55:00,38.4,34.0,30.05,NW,313,0.0,0.0,84,0.00,,,0.03,Wunderground v.1.15,2013-03-10 06:55:00,